Hourly Data Report for September 26, 2017

All times are specified in Local Standard Time (LST). Add 1 hour to adjust for Daylight Saving Time where and when it is observed.

GRISE FIORD CLIMATE
NUNAVUT

76°25'22.040" N
82°54'08.020" W
44.50 m
2402351
71971
NGC

Download Data

Hourly Data (September 2017)
Hourly Data Report for September 26, 2017
Temp Definition
°C
Dew Point Temp Definition
°C
Rel Hum Definition
%
Wind Dir Definition
10's deg

Wind Spd Definition
km/h
Visibility Definition
km
Stn Press Definition
kPa
Hmdx Definition


Wind Chill Definition


Weather Definition


TIME
00:00 -5.1 -10.7 65 5 16   100.84   -11 LegendNANA
01:00 -5.2 -10.4 66 6 14   100.85   -11 LegendNANA
02:00 -5.4 -11.5 62 4 19   100.87   -12 LegendNANA
03:00 -5.6 -11.2 65 5 5   100.90   -8 LegendNANA
04:00 -5.0 -10.8 64 6 6   100.92   -8 LegendNANA
05:00 -5.0 -10.6 65 4 16   100.90   -11 LegendNANA
06:00 -5.4 -9.3 74 12 8   100.93   -9 LegendNANA
07:00 -5.1 -8.7 76 12 6   100.92   -8 LegendNANA
08:00 -5.0 -8.5 76 12 6   100.93   -8 LegendNANA
09:00 -4.5 -8.1 76 13 5   100.91   -7 LegendNANA
10:00 -4.1 -8.2 73 7 2   100.90   -5 LegendNANA
11:00 -3.8 -8.0 73 13 3   100.89   -5 LegendNANA
12:00 -3.3 -9.0 64 16 1   100.86   -4 LegendNANA
13:00 -3.3 -8.0 70 16 3   100.83   -5 LegendNANA
14:00 -3.6 -8.5 69 25 5   100.83   -6 LegendNANA
15:00 -3.3 -8.6 67   0   100.82     LegendNANA
16:00 -3.3 -7.3 74 21 5   100.79   -5 LegendNANA
17:00 -3.4 -7.7 72 0 1   100.77   -4 LegendNANA
18:00 -3.5 -7.1 76 25 3   100.72   -5 LegendNANA
19:00 -3.9 -6.8 81   0   100.70     LegendNANA
20:00 -3.9 -6.6 82 4 3   100.67   -5 LegendNANA
21:00 -3.9 -6.8 80 5 3   100.61   -5 LegendNANA
22:00 -4.0 -6.7 82 5 6   100.57   -7 LegendNANA
23:00 -3.9 -6.1 84 11 2   100.55   -5 LegendNANA

Notes on Data Quality.

Legend

  • E = Estimated
  • M = Missing
  • NA = Not Available
  • ‡ = Partner data that is not subject to review by the National Climate Archives
Date modified: